Location: Bastogne Gables
(35.1554°N, 78.9900°W)
Time: 02:56:55
(UTC+00:00)

NOSS 3-3 (C) - Pass Details

Date: 29 October 2020
Orbit: 825 x 1387 km, 63.4° (Epoch: 22 November)

Event Time Altitude Azimuth Distance (km) Brightness Sun altitude
Rises 23:22:24 0° 215° (SW) 3,362 7.5 -12.5°
Reaches altitude 10° 23:24:46 10° 217° (SW) 2,457 6.8 -13.0°
Maximum altitude 23:30:23 73° 302° (WNW) 934 4.0 -14.1°
Drops below altitude 10° 23:36:40 10° 28° (NNE) 2,731 6.0 -15.4°
Enters shadow 23:38:38 - 30° (NNE) 3,464 6.5 -15.8°
